Time,TemperatureF,DewpointF,PressureIn,WindDirection,WindDirectionDegrees,WindSpeedMPH,WindSpeedGustMPH,Humidity,HourlyPrecipIn,Conditions,Clouds,dailyrainin,SoftwareType,DateUTC
2013-02-17 00:00:00,27.0,16.0,29.70,NW,316,0.0,10.0,64,0.00,,,0.05,weatherlink.com 1.10,2013-02-17 05:00:00,
2013-02-17 00:15:00,26.7,15.0,29.70,WNW,294,3.0,8.0,62,0.00,,,0.00,weatherlink.com 1.10,2013-02-17 05:15:00,
2013-02-17 00:30:00,26.5,15.0,29.68,NE,48,2.0,13.0,61,0.00,,,0.00,weatherlink.com 1.10,2013-02-17 05:30:00,
2013-02-17 00:45:00,26.3,14.0,29.66,NNW,340,3.0,9.0,59,0.00,,,0.00,weatherlink.com 1.10,2013-02-17 05:45:00,
2013-02-17 01:01:00,26.1,12.0,29.66,NNW,340,5.0,12.0,55,0.00,,,0.00,weatherlink.com 1.10,2013-02-17 06:01:00,
2013-02-17 01:16:00,26.0,11.0,29.68,North,1,3.0,12.0,53,0.00,,,0.00,weatherlink.com 1.10,2013-02-17 06:16:00,
2013-02-17 01:30:00,26.1,11.0,29.67,NNW,327,7.0,8.0,52,0.00,,,0.00,weatherlink.com 1.10,2013-02-17 06:30:00,
2013-02-17 01:45:00,26.0,10.0,29.66,NNW,329,7.0,12.0,51,0.00,,,0.00,weatherlink.com 1.10,2013-02-17 06:45:00,
2013-02-17 02:00:00,25.8,9.0,29.64,North,353,1.0,9.0,49,0.00,,,0.00,weatherlink.com 1.10,2013-02-17 07:00:00,
2013-02-17 02:15:00,25.3,9.0,29.64,WNW,298,5.0,15.0,50,0.00,,,0.00,weatherlink.com 1.10,2013-02-17 07:15:00,
2013-02-17 02:31:00,25.0,8.0,29.64,West,272,3.0,15.0,48,0.00,,,0.00,weatherlink.com 1.10,2013-02-17 07:31:00,
2013-02-17 02:46:00,25.0,7.0,29.64,NW,324,5.0,12.0,47,0.00,,,0.00,weatherlink.com 1.10,2013-02-17 07:46:00,
2013-02-17 03:01:00,24.8,7.0,29.62,NW,322,11.0,11.0,47,0.00,,,0.00,weatherlink.com 1.10,2013-02-17 08:01:00,
2013-02-17 03:16:00,24.6,6.0,29.61,NNW,338,4.0,14.0,45,0.00,,,0.00,weatherlink.com 1.10,2013-02-17 08:16:00,
2013-02-17 03:31:00,24.0,8.0,29.60,NW,322,4.0,18.0,51,0.00,,,0.00,weatherlink.com 1.10,2013-02-17 08:31:00,
2013-02-17 03:46:00,23.4,9.0,29.60,NNE,33,0.0,14.0,54,0.00,,,0.00,weatherlink.com 1.10,2013-02-17 08:46:00,
2013-02-17 04:01:00,23.2,8.0,29.59,NW,323,4.0,15.0,53,0.00,,,0.00,weatherlink.com 1.10,2013-02-17 09:01:00,
2013-02-17 04:16:00,23.1,8.0,29.59,NNW,329,5.0,22.0,53,0.00,,,0.00,weatherlink.com 1.10,2013-02-17 09:16:00,
2013-02-17 04:31:00,23.0,8.0,29.57,NW,319,4.0,11.0,54,0.00,,,0.00,weatherlink.com 1.10,2013-02-17 09:31:00,
2013-02-17 04:46:00,22.0,11.0,29.58,NNW,333,9.0,17.0,64,0.00,,,0.00,weatherlink.com 1.10,2013-02-17 09:46:00,
2013-02-17 05:01:00,21.2,12.0,29.58,NW,306,3.0,20.0,69,0.00,,,0.00,weatherlink.com 1.10,2013-02-17 10:01:00,
2013-02-17 05:16:00,20.9,12.0,29.57,NE,39,3.0,17.0,69,0.00,,,0.00,weatherlink.com 1.10,2013-02-17 10:16:00,
2013-02-17 05:31:00,20.5,13.0,29.55,WNW,293,7.0,20.0,74,0.00,,,0.00,weatherlink.com 1.10,2013-02-17 10:31:00,
2013-02-17 05:46:00,19.1,14.0,29.54,WNW,293,1.0,20.0,81,0.00,,,0.00,weatherlink.com 1.10,2013-02-17 10:46:00,
2013-02-17 06:02:00,18.3,15.0,29.54,NW,325,11.0,19.0,88,0.00,,,0.00,weatherlink.com 1.10,2013-02-17 11:02:00,
2013-02-17 06:16:00,17.8,15.0,29.52,North,354,6.0,23.0,88,0.00,,,0.00,weatherlink.com 1.10,2013-02-17 11:16:00,
2013-02-17 06:31:00,17.5,15.0,29.52,NNW,331,5.0,16.0,89,0.00,,,0.00,weatherlink.com 1.10,2013-02-17 11:31:00,
2013-02-17 06:47:00,17.2,15.0,29.49,NW,322,6.0,20.0,89,0.00,,,0.00,weatherlink.com 1.10,2013-02-17 11:47:00,
2013-02-17 07:02:00,16.9,14.0,29.50,NW,313,3.0,21.0,89,0.00,,,0.00,weatherlink.com 1.10,2013-02-17 12:02:00,
2013-02-17 07:16:00,16.7,14.0,29.50,NNW,348,6.0,19.0,89,0.00,,,0.00,weatherlink.com 1.10,2013-02-17 12:16:00,
2013-02-17 07:32:00,16.6,14.0,29.47,NNW,340,11.0,18.0,88,0.00,,,0.00,weatherlink.com 1.10,2013-02-17 12:32:00,
2013-02-17 07:47:00,16.6,14.0,29.46,NNW,333,9.0,19.0,88,0.00,,,0.00,weatherlink.com 1.10,2013-02-17 12:47:00,
2013-02-17 08:02:00,16.6,14.0,29.46,NW,312,5.0,25.0,88,0.00,,,0.00,weatherlink.com 1.10,2013-02-17 13:02:00,
2013-02-17 08:17:00,16.6,14.0,29.44,North,6,5.0,24.0,88,0.00,,,0.00,weatherlink.com 1.10,2013-02-17 13:17:00,
2013-02-17 08:32:00,16.6,13.0,29.43,NNW,332,8.0,22.0,87,0.00,,,0.00,weatherlink.com 1.10,2013-02-17 13:32:00,
2013-02-17 08:47:00,16.6,13.0,29.42,NW,317,11.0,22.0,87,0.00,,,0.00,weatherlink.com 1.10,2013-02-17 13:47:00,
2013-02-17 09:02:00,16.6,14.0,29.41,NW,321,18.0,21.0,88,0.00,,,0.00,weatherlink.com 1.10,2013-02-17 14:02:00,
2013-02-17 09:17:00,16.6,14.0,29.40,NW,319,8.0,21.0,88,0.00,,,0.00,weatherlink.com 1.10,2013-02-17 14:17:00,
2013-02-17 09:32:00,16.5,14.0,29.39,NNW,329,23.0,23.0,88,0.00,,,0.00,weatherlink.com 1.10,2013-02-17 14:32:00,
2013-02-17 09:47:00,16.6,13.0,29.39,NNW,341,15.0,21.0,87,0.00,,,0.00,weatherlink.com 1.10,2013-02-17 14:47:00,
2013-02-17 10:02:00,16.8,14.0,29.38,NNW,336,16.0,21.0,87,0.00,,,0.00,weatherlink.com 1.10,2013-02-17 15:02:00,
2013-02-17 10:18:00,16.9,13.0,29.38,NNW,340,9.0,19.0,86,0.00,,,0.00,weatherlink.com 1.10,2013-02-17 15:18:00,
2013-02-17 10:32:00,17.1,13.0,29.37,NNW,347,14.0,21.0,84,0.00,,,0.00,weatherlink.com 1.10,2013-02-17 15:32:00,
2013-02-17 10:47:00,17.4,13.0,29.36,NW,304,12.0,26.0,82,0.00,,,0.00,weatherlink.com 1.10,2013-02-17 15:47:00,
2013-02-17 11:02:00,17.6,13.0,29.36,NW,309,6.0,30.0,81,0.00,,,0.00,weatherlink.com 1.10,2013-02-17 16:02:00,
2013-02-17 11:17:00,17.8,12.0,29.37,NNE,18,10.0,33.0,77,0.00,,,0.00,weatherlink.com 1.10,2013-02-17 16:17:00,
2013-02-17 11:32:00,18.1,11.0,29.36,WNW,303,10.0,30.0,73,0.00,,,0.00,weatherlink.com 1.10,2013-02-17 16:32:00,
2013-02-17 11:48:00,18.4,10.0,29.35,NW,317,16.0,31.0,71,0.00,,,0.00,weatherlink.com 1.10,2013-02-17 16:48:00,
2013-02-17 12:02:00,18.8,11.0,29.36,NW,318,10.0,27.0,71,0.00,,,0.00,weatherlink.com 1.10,2013-02-17 17:02:00,
2013-02-17 12:17:00,19.2,10.0,29.36,NW,315,11.0,30.0,68,0.00,,,0.00,weatherlink.com 1.10,2013-02-17 17:17:00,
2013-02-17 12:32:00,19.6,10.0,29.36,NW,312,12.0,39.0,66,0.00,,,0.00,weatherlink.com 1.10,2013-02-17 17:32:00,
2013-02-17 12:47:00,19.7,10.0,29.36,WNW,292,8.0,27.0,66,0.00,,,0.00,weatherlink.com 1.10,2013-02-17 17:47:00,
2013-02-17 13:02:00,19.6,9.0,29.36,NW,304,8.0,25.0,64,0.00,,,0.00,weatherlink.com 1.10,2013-02-17 18:02:00,
2013-02-17 13:17:00,20.0,8.0,29.36,NW,323,9.0,25.0,59,0.00,,,0.00,weatherlink.com 1.10,2013-02-17 18:17:00,
2013-02-17 13:32:00,20.4,6.0,29.37,NNW,330,17.0,28.0,53,0.00,,,0.00,weatherlink.com 1.10,2013-02-17 18:32:00,
2013-02-17 13:47:00,20.7,4.0,29.38,NNW,337,15.0,23.0,49,0.00,,,0.00,weatherlink.com 1.10,2013-02-17 18:47:00,
2013-02-17 14:02:00,21.3,3.0,29.38,NNW,348,7.0,25.0,46,0.00,,,0.00,weatherlink.com 1.10,2013-02-17 19:02:00,
2013-02-17 14:18:00,21.1,3.0,29.37,NW,322,18.0,28.0,46,0.00,,,0.00,weatherlink.com 1.10,2013-02-17 19:18:00,
2013-02-17 14:32:00,21.6,3.0,29.38,NW,318,7.0,25.0,44,0.00,,,0.00,weatherlink.com 1.10,2013-02-17 19:32:00,
2013-02-17 14:48:00,21.5,1.0,29.38,NW,324,21.0,29.0,41,0.00,,,0.00,weatherlink.com 1.10,2013-02-17 19:48:00,
2013-02-17 15:02:00,21.2,0.0,29.39,WNW,296,3.0,33.0,40,0.00,,,0.00,weatherlink.com 1.10,2013-02-17 20:02:00,
2013-02-17 15:17:00,21.2,0.0,29.39,WNW,301,11.0,29.0,40,0.00,,,0.00,weatherlink.com 1.10,2013-02-17 20:17:00,
2013-02-17 15:34:00,21.1,1.0,29.40,NNW,334,20.0,35.0,41,0.00,,,0.00,weatherlink.com 1.10,2013-02-17 20:34:00,
2013-02-17 15:47:00,20.7,1.0,29.41,NNW,335,20.0,30.0,42,0.00,,,0.00,weatherlink.com 1.10,2013-02-17 20:47:00,
2013-02-17 16:02:00,20.7,0.0,29.42,North,349,13.0,20.0,41,0.00,,,0.00,weatherlink.com 1.10,2013-02-17 21:02:00,
2013-02-17 16:17:00,20.7,1.0,29.43,NNW,348,9.0,23.0,42,0.00,,,0.00,weatherlink.com 1.10,2013-02-17 21:17:00,
2013-02-17 16:33:00,20.5,0.0,29.44,NNW,343,12.0,26.0,41,0.00,,,0.00,weatherlink.com 1.10,2013-02-17 21:33:00,
2013-02-17 16:48:00,20.4,0.0,29.44,NW,305,11.0,23.0,41,0.00,,,0.00,weatherlink.com 1.10,2013-02-17 21:48:00,
2013-02-17 17:03:00,20.2,0.0,29.45,NNW,337,6.0,23.0,42,0.00,,,0.00,weatherlink.com 1.10,2013-02-17 22:03:00,
2013-02-17 17:18:00,19.9,1.0,29.46,NW,325,9.0,25.0,43,0.00,,,0.00,weatherlink.com 1.10,2013-02-17 22:18:00,
2013-02-17 17:33:00,19.8,1.0,29.47,NNW,332,13.0,27.0,43,0.00,,,0.00,weatherlink.com 1.10,2013-02-17 22:33:00,
2013-02-17 17:48:00,19.7,0.0,29.47,NNW,334,13.0,21.0,43,0.00,,,0.00,weatherlink.com 1.10,2013-02-17 22:48:00,
2013-02-17 18:03:00,19.7,0.0,29.47,NNW,328,15.0,27.0,43,0.00,,,0.00,weatherlink.com 1.10,2013-02-17 23:03:00,
2013-02-17 18:18:00,19.8,-1.0,29.48,NNW,338,14.0,31.0,41,0.00,,,0.00,weatherlink.com 1.10,2013-02-17 23:18:00,
2013-02-17 18:33:00,19.7,-1.0,29.48,NNW,337,15.0,26.0,41,0.00,,,0.00,weatherlink.com 1.10,2013-02-17 23:33:00,
2013-02-17 18:48:00,19.6,0.0,29.49,North,351,18.0,25.0,42,0.00,,,0.00,weatherlink.com 1.10,2013-02-17 23:48:00,
2013-02-17 19:03:00,19.5,0.0,29.49,NW,314,14.0,25.0,42,0.00,,,0.00,weatherlink.com 1.10,2013-02-18 00:03:00,
2013-02-17 19:18:00,19.3,0.0,29.50,NW,321,14.0,24.0,43,0.00,,,0.00,weatherlink.com 1.10,2013-02-18 00:18:00,
2013-02-17 19:33:00,19.0,0.0,29.50,WNW,294,5.0,27.0,44,0.00,,,0.00,weatherlink.com 1.10,2013-02-18 00:33:00,
2013-02-17 19:48:00,18.8,0.0,29.50,NNW,329,23.0,25.0,44,0.00,,,0.00,weatherlink.com 1.10,2013-02-18 00:48:00,
2013-02-17 20:04:00,18.5,0.0,29.51,WNW,302,9.0,26.0,44,0.00,,,0.00,weatherlink.com 1.10,2013-02-18 01:04:00,
2013-02-17 20:18:00,18.4,0.0,29.52,North,357,22.0,33.0,44,0.00,,,0.00,weatherlink.com 1.10,2013-02-18 01:18:00,
2013-02-17 20:33:00,18.2,0.0,29.53,WNW,289,2.0,29.0,45,0.00,,,0.00,weatherlink.com 1.10,2013-02-18 01:33:00,
2013-02-17 20:48:00,18.0,-1.0,29.54,North,352,10.0,20.0,44,0.00,,,0.00,weatherlink.com 1.10,2013-02-18 01:48:00,
2013-02-17 21:03:00,17.7,0.0,29.55,NW,325,10.0,21.0,45,0.00,,,0.00,weatherlink.com 1.10,2013-02-18 02:03:00,
2013-02-17 21:18:00,17.2,0.0,29.56,NW,322,21.0,24.0,46,0.00,,,0.00,weatherlink.com 1.10,2013-02-18 02:18:00,
2013-02-17 21:33:00,16.7,-1.0,29.57,NW,321,14.0,27.0,46,0.00,,,0.00,weatherlink.com 1.10,2013-02-18 02:33:00,
2013-02-17 21:48:00,16.2,-1.0,29.59,WNW,299,10.0,23.0,47,0.00,,,0.00,weatherlink.com 1.10,2013-02-18 02:48:00,
2013-02-17 22:04:00,15.9,-1.0,29.59,NW,325,11.0,23.0,48,0.00,,,0.00,weatherlink.com 1.10,2013-02-18 03:04:00,
2013-02-17 22:19:00,15.5,-1.0,29.60,NNW,331,10.0,27.0,49,0.00,,,0.00,weatherlink.com 1.10,2013-02-18 03:19:00,
2013-02-17 22:34:00,15.2,-1.0,29.61,NW,326,8.0,22.0,49,0.00,,,0.00,weatherlink.com 1.10,2013-02-18 03:34:00,
2013-02-17 22:49:00,14.9,-1.0,29.61,NW,310,11.0,25.0,50,0.00,,,0.00,weatherlink.com 1.10,2013-02-18 03:49:00,
2013-02-17 23:04:00,14.7,-1.0,29.62,WNW,286,11.0,25.0,51,0.00,,,0.00,weatherlink.com 1.10,2013-02-18 04:04:00,
2013-02-17 23:19:00,14.4,-1.0,29.63,NW,314,9.0,24.0,51,0.00,,,0.00,weatherlink.com 1.10,2013-02-18 04:19:00,
2013-02-17 23:34:00,14.1,-1.0,29.63,WNW,294,7.0,22.0,52,0.00,,,0.00,weatherlink.com 1.10,2013-02-18 04:34:00,
2013-02-17 23:49:00,14.1,-1.0,29.64,WNW,298,13.0,24.0,52,0.00,,,0.00,weatherlink.com 1.10,2013-02-18 04:49:00,